Flag for Norway Weather past 2 weeks in Kleppestø, Norway

Now
61 °F

Overcast.


Feels Like: 61 °F
Forecast: 52 / 57 °F
Wind: 5 mph from South

Location: Bergen / Florida

Current Time: Sep 30, 2014 at 6:24:11 PM

Latest Report: Sep 30, 2014 at 5:00 PM


Visibility: 28 mi

Pressure: 30.20 "Hg

Humidity: 57%

Dew point: 46 °F

Location of KleppestøLocation

Historic Weather in Kleppestø — Graph

°F

Kleppestø temperature yesterday

Maximum temperature yesterday: 58 °F (at 12:00 PM)
Minimum temperature yesterday: 49 °F (at 2:00 AM)
Average temperature yesterday: 53 °F

Past Weeks' High & Low Weather Summary

 TemperatureHumidityPressure
High73 °F (Sep 16, 5:00 PM)90% (Sep 25, 6:00 AM)30.30 "Hg (Sep 25, 6:00 AM)
Low44 °F (Sep 23, 2:00 AM)30% (Sep 16, 5:00 PM)29.54 "Hg (Sep 26, 9:00 AM)
Average54 °F73%30.00 "Hg
* Reported Sep 15 5:00 PM — Sep 30 5:00 PM, Kleppestø, Weather by CustomWeather, © 2014

Note: Actual official high and low records may vary slightly from our data, if they occured in-between our weather recording intervals... More about our weather records

Advertising

Kleppestø weather history for previous 24 hours

 ConditionsComfort  
Time TempWeatherWind HumidityBarometerVisibility
5:00 PM
Sep 30
61 °FOvercast.5 mph57%30.20 "Hg28 mi
4:00 PM61 °FRefreshingly cool.5 mph58%30.20 "HgN/A
3:00 PM61 °FRefreshingly cool.5 mph59%30.21 "HgN/A
2:00 PM61 °FOvercast.6 mph56%30.21 "Hg28 mi
1:00 PM62 °FRefreshingly cool.5 mph59%30.20 "HgN/A
12:00 PM61 °FRefreshingly cool.5 mph56%30.19 "HgN/A
11:00 AM61 °FOvercast.3 mph57%30.18 "Hg28 mi
10:00 AM59 °FCool.2 mph61%30.17 "HgN/A
9:00 AM58 °FCool.2 mph65%30.17 "HgN/A
8:00 AM57 °FOvercast.3 mph64%30.16 "Hg25 mi
7:00 AM57 °FCool.5 mph61%30.16 "HgN/A
6:00 AM55 °FCool.3 mph66%30.16 "HgN/A
5:00 AM54 °FCool.2 mph73%30.17 "HgN/A
4:00 AM52 °FCool.2 mph84%30.17 "HgN/A
3:00 AM52 °FCool.1 mph85%30.17 "HgN/A
2:00 AM52 °FCool.1 mph84%30.17 "HgN/A
1:00 AM52 °FCool.1 mph83%30.17 "HgN/A
12:00 AM53 °FCool.2 mph80%30.18 "HgN/A
11:00 PM
Sep 29
53 °FPassing clouds.No wind74%30.18 "Hg25 mi
10:00 PM53 °FCool.1 mph75%30.18 "HgN/A
9:00 PM53 °FCool.1 mph75%30.18 "HgN/A
8:00 PM53 °FPassing clouds.1 mph74%30.18 "Hg25 mi
7:00 PM56 °FCool.2 mph69%30.17 "HgN/A
6:00 PM57 °FCool.1 mph63%30.18 "HgN/A
Weather by CustomWeather, © 2014

See weather overviewHow to use our weather pages